sat.trackr.live / text

‹ back to catalog

STARLINK-36372

NORAD 67889 · 2026-035L

PAYLOAD ACTIVE UNKNOWN

§ Identity

Operator
Country
US
Launch date
2026-02-21
Launch site
AFWTR
Launch vehicle
Mass (kg)
RCS (m²)

Purposes: comms

External: N2YO · Heavens-Above · Gunter

§ Orbital elements

Epoch: 2026-05-24T19:24:16.775136Z

Period
93.91 min
Inclination
97.2849°
Eccentricity
0.0001876
Mean motion
15.33452723 rev/d
Perigee alt
464.2 km
Apogee alt
466.8 km
Semi-major
6,843.7 km
B*
7.6905e-4
RAAN
78.3424°
Arg perigee
93.8751°
Mean anomaly
266.2707°
Rev number
1,565

§ Raw data

STARLINK-363721 67889U 26035L   26144.80852749  .00024841  00000+0  76905-3 0  99922 67889  97.2849  78.3424 0001876  93.8751 266.2707 15.33452723 15654

JSON: /api/v1/satellites/67889 · /tle

For live sub-satellite position, see the globe view (requires WebGL).

§ Visibility from observer

Set your observer location to see the next 7 days of passes ≥ 10°. The values pass through the URL so the page stays shareable.

No JS? Fill the form by hand. The geolocation button needs JavaScript.